TimeCST,TemperatureF,Dew PointF,Humidity,Sea Level PressureIn,VisibilityMPH,Wind Direction,Wind SpeedMPH,Gust SpeedMPH,PrecipitationIn,Events,Conditions,WindDirDegrees,DateUTC
12:53 AM,39.9,35.1,83,30.25,10.0,NNW,8.1,-,N/A,,Clear,330,2012-12-13 06:53:00
1:53 AM,39.0,35.1,86,30.25,10.0,NNW,4.6,-,N/A,,Clear,340,2012-12-13 07:53:00
2:53 AM,39.0,35.1,86,30.25,10.0,North,4.6,-,N/A,,Clear,350,2012-12-13 08:53:00
3:53 AM,37.9,35.1,89,30.27,8.0,North,4.6,-,N/A,,Clear,350,2012-12-13 09:53:00
4:53 AM,37.9,36.0,93,30.26,7.0,NNE,5.8,-,N/A,,Clear,20,2012-12-13 10:53:00
5:53 AM,39.0,36.0,89,30.27,6.0,NNE,4.6,-,N/A,,Clear,30,2012-12-13 11:53:00
6:53 AM,37.9,36.0,93,30.30,4.0,NNE,4.6,-,N/A,,Clear,20,2012-12-13 12:53:00
7:34 AM,42.8,39.2,87,30.30,5.0,NNE,8.1,-,N/A,,Scattered Clouds,20,2012-12-13 13:34:00
7:43 AM,42.8,39.2,87,30.31,4.0,NNE,10.4,-,N/A,,Mostly Cloudy,20,2012-12-13 13:43:00
7:53 AM,42.1,39.9,92,30.31,4.0,North,6.9,-,N/A,,Overcast,10,2012-12-13 13:53:00
8:53 AM,44.1,41.0,89,30.34,4.0,NNE,6.9,-,N/A,,Overcast,20,2012-12-13 14:53:00
9:49 AM,46.4,42.8,87,30.34,6.0,NNE,6.9,-,N/A,,Overcast,30,2012-12-13 15:49:00
9:53 AM,46.9,43.0,86,30.34,6.0,NNE,6.9,-,N/A,,Overcast,30,2012-12-13 15:53:00
10:42 AM,50.0,44.6,82,30.34,10.0,NE,3.5,-,N/A,,Scattered Clouds,50,2012-12-13 16:42:00
10:53 AM,55.0,46.0,72,30.33,10.0,ENE,6.9,-,N/A,,Scattered Clouds,70,2012-12-13 16:53:00
11:53 AM,-9999,-9999,N/A,30.30,-9999.0,NE,8.1,-,N/A,,Unknown,50,2012-12-13 17:53:00
12:53 PM,61.0,46.0,58,30.28,10.0,East,4.6,-,N/A,,Clear,100,2012-12-13 18:53:00
1:53 PM,62.1,45.0,53,30.26,10.0,Variable,5.8,-,N/A,,Clear,0,2012-12-13 19:53:00
2:53 PM,62.1,45.0,53,30.25,10.0,NE,8.1,-,N/A,,Clear,50,2012-12-13 20:53:00
3:53 PM,60.1,45.0,57,30.25,10.0,NE,4.6,-,N/A,,Clear,50,2012-12-13 21:53:00
5:53 PM,46.9,44.1,90,30.27,8.0,Calm,Calm,-,N/A,,Clear,0,2012-12-13 23:53:00
6:53 PM,42.1,39.9,92,30.29,2.0,Calm,Calm,-,N/A,,Clear,0,2012-12-14 00:53:00
7:02 PM,42.8,39.2,87,30.28,4.0,Calm,Calm,-,N/A,,Clear,0,2012-12-14 01:02:00
7:53 PM,41.0,37.9,89,30.30,4.0,Calm,Calm,-,N/A,,Clear,0,2012-12-14 01:53:00
8:01 PM,41.0,39.2,93,30.31,2.5,Calm,Calm,-,N/A,,Clear,0,2012-12-14 02:01:00
8:08 PM,42.8,39.2,87,30.31,8.0,Calm,Calm,-,N/A,,Clear,0,2012-12-14 02:08:00
8:33 PM,39.2,37.4,93,30.31,1.8,Calm,Calm,-,N/A,,Clear,0,2012-12-14 02:33:00
8:42 PM,39.2,37.4,93,30.31,4.0,Calm,Calm,-,N/A,,Clear,0,2012-12-14 02:42:00
8:53 PM,39.0,37.0,93,30.31,5.0,Calm,Calm,-,N/A,,Clear,0,2012-12-14 02:53:00
9:53 PM,37.0,35.1,93,30.30,4.0,Calm,Calm,-,N/A,,Clear,0,2012-12-14 03:53:00
10:51 PM,35.6,33.8,93,30.32,4.0,Calm,Calm,-,N/A,,Scattered Clouds,0,2012-12-14 04:51:00
10:53 PM,36.0,34.0,93,30.32,4.0,Calm,Calm,-,N/A,,Scattered Clouds,0,2012-12-14 04:53:00
11:00 PM,35.6,33.8,93,30.32,5.0,Calm,Calm,-,N/A,,Mostly Cloudy,0,2012-12-14 05:00:00
11:04 PM,35.6,33.8,93,30.32,1.5,Calm,Calm,-,N/A,,Mostly Cloudy,0,2012-12-14 05:04:00
11:12 PM,35.6,33.8,93,30.32,0.5,Calm,Calm,-,N/A,Fog,Fog,0,2012-12-14 05:12:00
11:38 PM,35.6,33.8,93,30.32,1.0,Calm,Calm,-,N/A,,Mist,0,2012-12-14 05:38:00
11:43 PM,37.4,35.6,93,30.32,2.5,Calm,Calm,-,N/A,,Scattered Clouds,0,2012-12-14 05:43:00
11:50 PM,37.4,35.6,93,30.32,7.0,Calm,Calm,-,N/A,,Partly Cloudy,0,2012-12-14 05:50:00